Weather History for Blackwell, OK

Change the Weather History Date:

Wednesday, December 4, 2013

  Actual Average (KPNC) Record (KPNC)
Temperature  
Mean Temperature 35 °F -  
Max Temperature 44 °F 52 °F 74 °F (1975)
Min Temperature 26 °F 30 °F 15 °F (1972)
Degree Days  
Heating Degree Days 30    
Moisture  
Dew Point 28 °F    
Average Humidity 81    
Maximum Humidity 100    
Minimum Humidity 55    
Precipitation  
Precipitation 0.00 in - - ()
Sea Level Pressure  
Sea Level Pressure 29.77 in    
Wind  
Wind Speed 13 mph (NNW)    
Max Wind Speed 25 mph    
Max Gust Speed 34 mph    
Visibility 8 miles    
Events Fog    
Averages and records for this station are not official NWS values.
T = Trace of Precipitation, MM = Missing Value Source: NWS Daily Summary

Daily Weather History Graph

Daily Weather History Graph

Search for Another Location

Airport:

Trip Planner

Search our weather history database for the weather conditions in past years. The results will help you decide how hot, cold, wet, or windy it might be!

Date:

Astronomy

Dec. 04, 2013 Rise Set
Actual Time 7:26 AM CST 5:13 PM CST
Civil Twilight 6:57 AM CST 5:41 PM CST
Nautical Twilight 6:25 AM CST 6:13 PM CST
Astronomical Twilight 5:54 AM CST 6:45 PM CST
Moon 8:56 AM CST (12/4) 7:23 PM CST (12/4)
Length of Visible Light 10h 43m
Length of Day
9h 46m
Waxing Crescent, 4% of the Moon is Illuminated
Dec 4
Waxing Crescent
Dec 9
First Quarter
Dec 17
Full
Dec 25
Last Quarter
Jan 1
New

Hourly Weather History & Observations

Time (CST) Temp. Windchill Dew Point Humidity Pressure Visibility Wind Dir Wind Speed Gust Speed Precip Events Conditions
12:15 AM 44.6 °F 40.2 °F 44.6 °F 100% 29.49 in 7.0 mi ESE 8.1 mph - N/A   Clear
12:35 AM 44.6 °F 40.2 °F 42.8 °F 93% 29.48 in 5.0 mi SE 8.1 mph - N/A   Clear
12:55 AM 44.6 °F 40.7 °F 42.8 °F 93% 29.48 in 3.0 mi ESE 6.9 mph - N/A   Clear
1:15 AM 44.6 °F 40.2 °F 44.6 °F 100% 29.46 in 4.0 mi ESE 8.1 mph - N/A   Partly Cloudy
1:35 AM 44.6 °F 40.2 °F 42.8 °F 93% 29.46 in 3.0 mi ESE 8.1 mph - N/A   Mostly Cloudy
1:55 AM 44.6 °F 40.2 °F 42.8 °F 93% 29.45 in 3.0 mi SE 8.1 mph - N/A   Scattered Clouds
2:15 AM 44.6 °F 40.2 °F 42.8 °F 93% 29.45 in 4.0 mi SE 8.1 mph - N/A   Clear
2:35 AM 44.6 °F 38.1 °F 44.6 °F 100% 29.50 in 5.0 mi WNW 13.8 mph 23.0 mph N/A   Clear
2:55 AM 41.0 °F 37.1 °F 41.0 °F 100% 29.49 in 3.0 mi NW 5.8 mph - N/A   Partly Cloudy
3:15 AM 41.0 °F 38.0 °F 39.2 °F 93% 29.49 in 3.0 mi NNE 4.6 mph - N/A   Clear
3:35 AM 39.2 °F 35.9 °F 39.2 °F 100% 29.49 in 2.0 mi North 4.6 mph - N/A   Clear
3:55 AM 37.4 °F 33.8 °F 37.4 °F 100% 29.50 in 1.2 mi North 4.6 mph - N/A   Clear
4:15 AM 37.4 °F 32.8 °F 37.4 °F 100% 29.50 in 0.2 mi NNW 5.8 mph - N/A Fog Fog
4:35 AM 37.4 °F 32.8 °F 37.4 °F 100% 29.52 in 2.5 mi WNW 5.8 mph - N/A   Mostly Cloudy
4:55 AM 39.2 °F 32.0 °F 39.2 °F 100% 29.54 in 0.8 mi NW 11.5 mph - N/A   Overcast
5:15 AM 41.0 °F 30.7 °F 41.0 °F 100% 29.54 in 1.2 mi NW 25.3 mph 28.8 mph N/A   Overcast
5:35 AM 39.2 °F 28.7 °F 39.2 °F 100% 29.56 in 1.8 mi NW 23.0 mph 29.9 mph N/A   Overcast
5:55 AM 37.4 °F 26.9 °F 37.4 °F 100% 29.58 in 2.5 mi NNW 20.7 mph 34.5 mph N/A   Overcast
6:15 AM 37.4 °F 26.1 °F 35.6 °F 93% 29.60 in 3.0 mi NNW 24.2 mph 31.1 mph N/A   Overcast
6:35 AM 37.4 °F 26.4 °F 35.6 °F 93% 29.61 in 5.0 mi NNW 23.0 mph - N/A   Overcast
6:55 AM 35.6 °F 23.7 °F 33.8 °F 93% 29.63 in 9.0 mi NW 24.2 mph - N/A   Overcast
7:15 AM 35.6 °F 23.4 °F 32.0 °F 87% 29.65 in 10.0 mi NNW 25.3 mph 32.2 mph N/A   Overcast
7:35 AM 35.6 °F 23.7 °F 32.0 °F 87% 29.67 in 10.0 mi NNW 24.2 mph 31.1 mph N/A   Overcast
7:55 AM 33.8 °F 22.2 °F 32.0 °F 93% 29.68 in 10.0 mi NNW 20.7 mph 28.8 mph N/A   Overcast
8:15 AM 32.0 °F 19.8 °F 30.2 °F 93% 29.69 in 10.0 mi NW 20.7 mph 28.8 mph N/A   Overcast
8:35 AM 32.0 °F 20.5 °F 30.2 °F 93% 29.71 in 10.0 mi NW 18.4 mph 25.3 mph N/A   Overcast
8:55 AM 32.0 °F 20.1 °F 28.4 °F 87% 29.72 in 10.0 mi NW 19.6 mph - N/A   Overcast
9:15 AM 32.0 °F 19.5 °F 28.4 °F 87% 29.73 in 10.0 mi NNW 21.9 mph - N/A   Overcast
9:35 AM 32.0 °F 20.5 °F 28.4 °F 87% 29.75 in 10.0 mi NW 18.4 mph 24.2 mph N/A   Overcast
9:55 AM 32.0 °F 20.5 °F 28.4 °F 87% 29.76 in 10.0 mi NW 18.4 mph - N/A   Overcast
10:15 AM 32.0 °F 20.5 °F 28.4 °F 87% 29.77 in 10.0 mi NNW 18.4 mph - N/A   Overcast
10:35 AM 32.0 °F 20.5 °F 26.6 °F 80% 29.79 in 10.0 mi NW 18.4 mph - N/A   Overcast
10:55 AM 32.0 °F 20.8 °F 28.4 °F 87% 29.79 in 10.0 mi NW 17.3 mph - N/A   Overcast
11:15 AM 32.0 °F 20.8 °F 26.6 °F 80% 29.79 in 10.0 mi NNW 17.3 mph - N/A   Overcast
11:35 AM 33.8 °F 23.5 °F 26.6 °F 75% 29.80 in 10.0 mi NNW 16.1 mph 23.0 mph N/A   Overcast
11:55 AM 33.8 °F 23.9 °F 26.6 °F 75% 29.79 in 10.0 mi NW 15.0 mph 19.6 mph N/A   Overcast
12:15 PM 33.8 °F 23.2 °F 26.6 °F 75% 29.79 in 10.0 mi NW 17.3 mph - N/A   Overcast
12:35 PM 35.6 °F 25.9 °F 26.6 °F 70% 29.79 in 10.0 mi NW 16.1 mph - N/A   Overcast
12:55 PM 33.8 °F 24.3 °F 26.6 °F 75% 29.78 in 10.0 mi NNW 13.8 mph 19.6 mph N/A   Overcast
1:15 PM 33.8 °F 23.5 °F 26.6 °F 75% 29.80 in 10.0 mi NNW 16.1 mph 23.0 mph N/A   Overcast
1:35 PM 33.8 °F 23.2 °F 26.6 °F 75% 29.80 in 10.0 mi NW 17.3 mph 21.9 mph N/A   Overcast
1:55 PM 33.8 °F 23.5 °F 24.8 °F 70% 29.80 in 10.0 mi NNW 16.1 mph 20.7 mph N/A   Overcast
2:15 PM 33.8 °F 25.8 °F 24.8 °F 70% 29.80 in 10.0 mi NNW 10.4 mph - N/A   Overcast
2:35 PM 33.8 °F 23.5 °F 24.8 °F 70% 29.81 in 10.0 mi NNW 16.1 mph - N/A   Overcast
2:55 PM 32.0 °F 22.5 °F 24.8 °F 75% 29.83 in 10.0 mi NW 12.7 mph 17.3 mph N/A   Overcast
3:15 PM 32.0 °F 21.6 °F 24.8 °F 75% 29.83 in 10.0 mi NNW 15.0 mph 19.6 mph N/A   Overcast
3:35 PM 32.0 °F 22.5 °F 23.0 °F 69% 29.84 in 10.0 mi NW 12.7 mph - N/A   Overcast
3:55 PM 32.0 °F 20.8 °F 23.0 °F 69% 29.86 in 10.0 mi NNW 17.3 mph - N/A   Overcast
4:15 PM 32.0 °F 21.2 °F 23.0 °F 69% 29.87 in 10.0 mi NW 16.1 mph - N/A   Overcast
4:35 PM 32.0 °F 21.6 °F 23.0 °F 69% 29.89 in 10.0 mi NNW 15.0 mph 19.6 mph N/A   Overcast
4:55 PM 32.0 °F 23.0 °F 23.0 °F 69% 29.90 in 10.0 mi NNW 11.5 mph - N/A   Overcast
5:15 PM 30.2 °F 18.5 °F 23.0 °F 75% 29.90 in 10.0 mi North 17.3 mph - N/A   Overcast
5:35 PM 30.2 °F 18.9 °F 21.2 °F 69% 29.92 in 10.0 mi NNW 16.1 mph - N/A   Overcast
5:55 PM 28.4 °F 16.6 °F 19.4 °F 69% 29.92 in 10.0 mi NNW 16.1 mph - N/A   Overcast
6:15 PM 28.4 °F 19.1 °F 19.4 °F 69% 29.92 in 10.0 mi NNW 10.4 mph - N/A   Mostly Cloudy
6:35 PM 28.4 °F 19.1 °F 19.4 °F 69% 29.94 in 10.0 mi NNW 10.4 mph - N/A   Overcast
6:55 PM 28.4 °F 18.5 °F 19.4 °F 69% 29.96 in 10.0 mi NNW 11.5 mph - N/A   Mostly Cloudy
7:15 PM 26.6 °F 18.2 °F 19.4 °F 74% 29.96 in 10.0 mi NNW 8.1 mph - N/A   Partly Cloudy
7:35 PM 26.6 °F 17.5 °F 19.4 °F 74% 29.96 in 10.0 mi NNW 9.2 mph - N/A   Partly Cloudy
7:55 PM 26.6 °F 16.2 °F 19.4 °F 74% 29.97 in 10.0 mi NNW 11.5 mph - N/A   Mostly Cloudy
8:15 PM 26.6 °F 16.2 °F 19.4 °F 74% 29.98 in 10.0 mi NNW 11.5 mph - N/A   Scattered Clouds
8:35 PM 26.6 °F 16.8 °F 19.4 °F 74% 29.98 in 10.0 mi NNW 10.4 mph - N/A   Clear
8:55 PM 26.6 °F 16.2 °F 19.4 °F 74% 29.99 in 10.0 mi NNW 11.5 mph - N/A   Partly Cloudy
9:15 PM 26.6 °F 16.2 °F 19.4 °F 74% 30.01 in 10.0 mi NNW 11.5 mph - N/A   Mostly Cloudy
9:35 PM 26.6 °F 15.7 °F 17.6 °F 69% 30.02 in 10.0 mi NNW 12.7 mph 19.6 mph N/A   Overcast
9:55 PM 26.6 °F 15.2 °F 17.6 °F 69% 30.03 in 10.0 mi NNW 13.8 mph - N/A   Overcast
10:15 PM 28.4 °F 17.0 °F 17.6 °F 64% 30.03 in 10.0 mi NNW 15.0 mph - N/A   Overcast
10:35 PM 28.4 °F 19.1 °F 17.6 °F 64% 30.05 in 10.0 mi NNW 10.4 mph - N/A   Overcast
10:55 PM 28.4 °F 16.6 °F 15.8 °F 59% 30.06 in 10.0 mi NNW 16.1 mph - N/A   Overcast
11:15 PM 28.4 °F 18.0 °F 15.8 °F 59% 30.08 in 10.0 mi NNW 12.7 mph - N/A   Overcast
11:35 PM 28.4 °F 16.2 °F 14.0 °F 55% 30.09 in 10.0 mi NNW 17.3 mph 20.7 mph N/A   Overcast
11:55 PM 28.4 °F 16.2 °F 14.0 °F 55% 30.10 in 10.0 mi North 17.3 mph - N/A   Overcast